TimeEST,TemperatureF,Dew PointF,Humidity,Sea Level PressureIn,VisibilityMPH,Wind Direction,Wind SpeedMPH,Gust SpeedMPH,PrecipitationIn,Events,Conditions,WindDirDegrees,DateUTC
12:51 AM,26.1,17.1,69,30.26,10.0,Calm,Calm,-,N/A,,Clear,0,2013-02-22 05:51:00
1:51 AM,34.0,10.9,38,30.24,10.0,SSE,9.2,-,N/A,,Partly Cloudy,150,2013-02-22 06:51:00
2:51 AM,35.1,10.0,35,30.23,10.0,SSE,3.5,-,N/A,,Overcast,150,2013-02-22 07:51:00
3:51 AM,36.0,12.0,37,30.17,10.0,South,5.8,-,N/A,,Overcast,190,2013-02-22 08:51:00
4:51 AM,34.0,24.1,67,30.17,10.0,Calm,Calm,-,0.00,Rain,Light Rain,0,2013-02-22 09:51:00
5:51 AM,34.0,26.1,73,30.16,10.0,Variable,3.5,-,0.02,Rain,Light Rain,0,2013-02-22 10:51:00
6:51 AM,35.1,25.0,67,30.14,10.0,SSE,8.1,-,0.01,,Overcast,150,2013-02-22 11:51:00
7:51 AM,36.0,27.0,70,30.14,10.0,SE,9.2,-,0.00,,Overcast,140,2013-02-22 12:51:00
8:51 AM,35.1,28.9,78,30.14,10.0,South,4.6,-,0.01,Rain,Light Rain,180,2013-02-22 13:51:00
9:51 AM,35.1,32.0,89,30.14,6.0,South,5.8,-,0.06,Rain,Light Rain,170,2013-02-22 14:51:00
10:51 AM,36.0,30.9,82,30.14,10.0,South,9.2,-,0.00,,Overcast,170,2013-02-22 15:51:00
11:51 AM,37.0,30.0,76,30.14,10.0,South,5.8,-,N/A,,Overcast,180,2013-02-22 16:51:00
12:51 PM,37.0,30.0,76,30.12,10.0,South,6.9,-,N/A,,Overcast,170,2013-02-22 17:51:00
1:51 PM,39.0,32.0,76,30.09,10.0,South,5.8,-,N/A,,Overcast,170,2013-02-22 18:51:00
2:51 PM,39.9,33.1,77,30.08,10.0,South,5.8,-,N/A,,Overcast,180,2013-02-22 19:51:00
3:51 PM,41.0,33.1,73,30.07,10.0,SSE,4.6,-,N/A,,Overcast,160,2013-02-22 20:51:00
4:51 PM,42.1,34.0,73,30.08,10.0,SE,3.5,-,N/A,,Overcast,140,2013-02-22 21:51:00
5:51 PM,39.0,32.0,76,30.07,10.0,SE,4.6,-,N/A,,Clear,130,2013-02-22 22:51:00
6:51 PM,36.0,30.9,82,30.07,10.0,SE,4.6,-,N/A,,Clear,140,2013-02-22 23:51:00
7:51 PM,37.0,30.9,79,30.06,10.0,SE,5.8,-,N/A,,Clear,140,2013-02-23 00:51:00
8:51 PM,37.0,32.0,82,30.06,10.0,Calm,Calm,-,N/A,,Clear,0,2013-02-23 01:51:00
9:51 PM,34.0,30.0,85,30.07,9.0,Calm,Calm,-,N/A,,Clear,0,2013-02-23 02:51:00
10:51 PM,35.1,30.9,85,30.06,9.0,Calm,Calm,-,N/A,,Mostly Cloudy,0,2013-02-23 03:51:00
11:51 PM,32.0,28.9,88,30.05,6.0,Calm,Calm,-,N/A,,Clear,0,2013-02-23 04:51:00